Regional Weather Roundup
Issued by NWS Newport/Morehead, NC

Current Version | Previous Version | Text Only | Print | Product List | Glossary On
Versions: 1 2 3 4 5 6 7 8 9 10 11 12 13 14 15 16 17 18 19 20 21 22 23 24 25 26 27 28 29 30 31 32 33 34 35 36 37 38 39 40 41 42 43 44 45 46 47 48 49 50
000 ASUS42 KMHX 011025 RWRMHX WEATHER ROUNDUP FOR EASTERN NORTH CAROLINA NATIONAL WEATHER SERVICE NEWPORT/MOREHEAD CITY NC 600 AM EDT TUE SEP 01 2015 NOTE: "FAIR" INDICATES FEW OR NO CLOUDS BELOW 12,000 FEET WITH NO SIGNIFICANT WEATHER AND/OR OBSTRUCTIONS TO VISIBILITY NCZ015>017-031-032-045>047-102-103-011100- NORTH COAST CITY SKY/WX TMP DP RH WIND PRES REMARKS EDENTON CLOUDY 70 69 98 N5 30.05R ELIZABETH CITY CLOUDY 73 72 96 NW5 30.04S KITTY HAWK CLOUDY 75 73 95 CALM 30.02S MANTEO CLOUDY 74 74 98 NE3 30.03S $$ NCZ045>047-081-094-103-104-011100- CENTRAL COAST CITY SKY/WX TMP DP RH WIND PRES REMARKS FRISCO CLOUDY 77 75 93 N7 30.01S SWANQUARTER NOT AVBL $$ NCZ095-097-098-100-101-011100- SOUTHERN COAST CITY SKY/WX TMP DP RH WIND PRES REMARKS BEAUFORT CLOUDY 75 74 96 NW9 30.04R CEDAR ISLAND NOT AVBL JACKSONVILLE CLOUDY 75 71 87 NW3 30.05R PINEY ISLAND CLOUDY N/A N/A N/A NW7 30.03R WILMINGTON CLOUDY 73 72 96 NW6 30.06R $$ NCZ011>013-027>030-043-044-078>080-089-090>093-098-011100- COASTAL PLAIN CITY SKY/WX TMP DP RH WIND PRES REMARKS AHOSKIE CLOUDY 70 70 98 CALM 30.06S FOG CLINTON CLOUDY 73 73 100 CALM 30.08R FOG ELIZABETHTOWN CLOUDY 72 72 100 NW3 30.07R FOG GOLDSBORO CLOUDY 73 73 100 NW6 30.05R GREENVILLE CLOUDY 73 73 100 CALM 30.08R FOG HAVELOCK CLOUDY 75 73 93 NW6 30.05R KENANSVILLE N/A 73 72 97 NW3 30.08R FOG KINSTON CLOUDY 73 73 99 CALM 30.07R NEW BERN CLOUDY 75 73 93 NW5 30.06R RICHLANDS CLOUDY 73 68 83 CALM 30.06R ROCKY MOUNT CLOUDY 72 70 93 NW7 30.06R WASHINGTON CLOUDY 73 72 97 NW3 30.06R WHITEVILLE CLOUDY 73 71 96 CALM 30.06S FOG $$ AMZ130-135-150-152-154-156-158-170-250-252-270-ANZ085-086-088-633-658-670-011100- MARINE OBSERVATIONS STATION/POSITION TIME TEMP WIND PRES WAVE SWELL AIR SEA DIR/SP/G HT/PER HT/PER (UTC) (F) (DEG/KT/KT) (MB) (FT/S) (FT/S) CHESAPEAKE LIGHT 1000 75 330/ 4/ 5 1017.9 64 E VA BEACH 0950 77 78 60/ 6/ 8 1016.7 2/ 8 2/ 8 DUCK 1000 76 78 50/ 3/ 4 1016.3 2 E DUCK 0911 78 N/A 2/11 OREGON INLET 1000 76 79 30/ 5/ 7 1016.5 13E OREGON INLT 1000 78 N/A 3/ 8 HATTERAS CG 1000 78 79 340/ 11/ 12 1015.9 DIAMOND BUOY 0950 80 84 290/ 6/ 8 1015.7 4/ 5 3/ 5 CAPE LOOKOUT 1000 76 310/ 12/ 14 1016.7 BEAUFORT LAB 1000 75 78 310/ 4/ 7 1016.5 30 SE NEW RVR IN 0908 77 81 310/ 14/ 19 1017.5 30 SE NEW RVR IN 0925 81 N/A 4/ 7 27 SE WRIGHTSVLE 1000 74 81 340/ 10/ 12 N/A 5 SE WRIGHTSVLE 0908 75 81 320/ 8/ 12 1017.7 225 S CAPE HAT 0950 84 84 240/ 10/ 10 1018.1 4/ 7 3/ 7 41 SE CHARLESTON 0950 81 82 320/ 4/ 6 1017.4 3/ 8 3/ 8 $$

USA.gov is the U.S. government's official web portal to all federal, state and local government web resources and services.